[[{"header":{"parameterUnit":"m.s-1","parameterCategory":1,"la1":30.2991,"la2":30.254,"lo1":-89.0895,"lo2":-89.0444,"dy":0.0017,"dx":0.0017,"nx":28,"ny":28,"refTime":"2026-02-25T03:00:00:Z","depth":0,"parameterNumber":2,"parameterNumberName":"U-component_of_WINDS"},"data":[0,0,0,0,0,0,0,0,0,0,0,0,0,0,0,0,0,0,0,0,0,0,0,0,0,0,0,0,0,0,0,0,0,0,0,0,0,0,0,0,0,0,0,0,0,0,0,0,0,0,0,0,0,0,0,0,0,0,1.0376,1.0378,0,1.0504,1.0506,1.0507,1.0561,1.0561,1.056,1.056,1.0695,1.0698,1.0702,0,0,0,0,0,0,0,0,0,0,0,0,0,1.0182,1.0185,1.0376,1.0378,1.0379,1.0504,1.0506,1.0507,1.0561,1.0561,1.056,1.056,1.0693,1.0698,1.0702,0,0,0,0,0,0,0,0,0,0,0,0,0,1.0284,1.0186,1.0376,1.0421,1.0426,1.0504,1.0506,1.0508,1.0561,1.0561,1.056,1.056,1.0692,1.0697,1.0703,1.0746,0,0,1.072,1.0723,0,0,0,0,0,0,0,0,1.0278,1.0291,1.0413,1.0418,1.0424,1.0516,1.0487,1.0588,1.0561,1.051,1.056,1.056,1.0636,1.0646,1.0671,1.0752,1.0758,1.0721,1.0724,1.0727,1.0729,0,0,0,0,0,0,0,1.0271,1.0286,1.0427,1.0414,1.0421,1.0436,1.045,1.0506,1.0574,1.0514,1.0519,1.0533,1.0639,1.0665,1.0674,1.076,1.0721,1.0726,1.0729,1.0732,1.0885,1.0885,0,0,0,0,0,0,1.0256,1.028,1.0423,1.0431,1.0348,1.044,1.0456,1.0487,1.0573,1.0586,1.0533,1.0535,1.0656,1.0668,1.0679,1.0737,1.0727,1.0732,1.0736,1.0884,1.0885,1.0886,0,0,0,0,0,0,1.0252,1.0268,1.0418,1.0356,1.0376,1.0444,1.0478,1.049,1.0516,1.0587,1.06,1.0547,1.0656,1.0671,1.0729,1.0742,1.0735,1.074,1.0883,1.0884,1.0885,1.085,0,0,0,0,0,0,1.0246,1.0266,1.0282,1.0356,1.038,1.0464,1.0479,1.0492,1.0526,1.0529,1.0604,1.0616,1.0657,1.072,1.0735,1.075,1.0745,1.0883,1.0884,1.0885,1.0851,1.085,1.0849,0,0,0,0,0,1.0239,1.0268,1.0283,1.03,1.0401,1.0465,1.0478,1.0523,1.0526,1.0544,1.0589,1.0614,1.0738,1.0726,1.0743,1.0759,1.0882,1.0883,1.0885,1.0851,1.085,1.0849,0,0,0,0,0,0,1.0195,1.0279,1.0296,1.035,1.04,1.0474,1.0497,1.0521,1.0572,1.0573,1.0628,1.0645,1.0698,1.0734,1.0719,1.0806,1.0812,1.0817,1.078,1.078,1.078,1.077,1.0749,0,0,0,0,0,1.0191,1.0235,1.0306,1.0347,1.0371,1.0429,1.0459,1.0489,1.0544,1.0565,1.0615,1.0668,1.0719,1.0751,1.0802,1.0856,1.0874,1.0876,1.0875,1.0874,1.0878,1.0911,1.0913,1.089,1.089,1.089,0,0,1.0185,1.0236,1.0261,1.034,1.0382,1.0427,1.0447,1.0494,1.0528,1.0573,1.063,1.0669,1.0731,1.0787,1.0814,1.0819,1.0888,1.0876,1.0875,1.0879,1.0912,1.0914,1.0916,1.0891,1.0891,1.0891,0,0,1.0197,1.0239,1.0278,1.032,1.0383,1.0422,1.0431,1.0501,1.0528,1.0587,1.0621,1.0664,1.075,1.0794,1.0827,1.0855,1.088,1.087,1.0867,1.0898,1.09,1.0902,1.0913,1.0916,1.0874,1.0873,1.0873,0,1.0181,1.025,1.0296,1.0341,1.0375,1.0416,1.0457,1.0496,1.0572,1.0596,1.06,1.0709,1.0754,1.0822,1.0829,1.0854,1.0867,1.0862,1.0896,1.0898,1.0901,1.0912,1.0916,1.0872,1.0872,1.0872,1.0872,0,1.0228,1.0275,1.0299,1.0371,1.0408,1.0451,1.0505,1.0537,1.0564,1.0603,1.0662,1.0718,1.0781,1.0799,1.0826,1.087,1.0872,1.0885,1.0892,1.09,1.0912,1.0917,1.087,1.087,1.0871,1.0871,0,0,1.0217,1.0313,1.0322,1.0355,1.0428,1.0466,1.0511,1.0571,1.0599,1.065,1.0691,1.0763,1.0775,1.0813,1.0846,1.0873,1.0893,1.0883,1.0886,1.0884,1.0947,1.0938,1.0942,1.0909,1.091,1.0911,1.0942,0,1.0239,1.032,1.0363,1.0427,1.0472,1.0511,1.0551,1.06,1.0638,1.0682,1.0724,1.0775,1.0787,1.081,1.0838,1.0884,1.0907,1.0883,1.0949,1.0951,1.0933,1.0948,1.0938,1.0964,1.0947,1.0948,1.0948,0,1.0276,1.0326,1.0394,1.0462,1.0483,1.0517,1.0577,1.0618,1.0676,1.0701,1.0743,1.0775,1.0826,1.0828,1.0899,1.0882,1.0912,1.0938,1.0941,1.095,1.0951,1.0959,1.0974,1.0978,1.0956,1.0955,1.0955,0,1.0262,1.0347,1.0399,1.0426,1.0507,1.053,1.0565,1.0622,1.0656,1.0708,1.0731,1.0789,1.0821,1.0866,1.0913,1.091,1.098,1.0986,1.1004,1.1003,1.1018,1.1017,1.104,1.1035,1.1035,1.1035,1.1035,0,1.0283,1.0324,1.0394,1.0426,1.0472,1.0522,1.0567,1.0605,1.0656,1.0697,1.0735,1.0773,1.0832,1.0878,1.0916,1.097,1.0984,1.1007,1.1017,1.1004,1.1001,1.1025,1.1025,1.1036,1.1036,1.1035,1.1035,0,1.0276,1.0324,1.0384,1.0455,1.0474,1.0505,1.0567,1.06,1.0639,1.0691,1.0706,1.0768,1.0824,1.0875,1.095,1.0975,1.1031,1.1042,1.1011,1.1017,1.1032,1.103,1.1073,1.1081,1.1068,1.1069,1.1069,0,1.0287,1.0319,1.0393,1.0423,1.0457,1.0504,1.0539,1.0589,1.0624,1.0692,1.0718,1.0776,1.0826,1.0914,1.0966,1.1024,1.1038,1.1049,1.1047,1.1034,1.104,1.1038,1.1043,1.1049,1.1049,1.1049,1.1049,0,1.0302,1.0324,1.0372,1.0429,1.0469,1.0516,1.0565,1.0587,1.0647,1.0684,1.0741,1.078,1.0856,1.0914,1.0978,1.1015,1.1043,1.1048,1.1056,1.1044,1.1025,1.1037,1.1011,1.1048,1.1048,1.1048,1.1048,1.1048,1.0305,1.0336,1.0393,1.0446,1.0487,1.0532,1.0567,1.061,1.0658,1.0723,1.075,1.0808,1.0867,1.0955,1.0992,1.1039,1.1045,1.1055,1.1058,1.1061,1.1059,1.1016,1.1051,1.1051,1.1051,1.1051,1.1051,0,1.0323,1.0362,1.0409,1.0476,1.0517,1.0538,1.0593,1.0627,1.0677,1.0728,1.0776,1.0843,1.0899,1.0956,1.1016,1.1044,1.1058,1.1058,1.1057,1.1066,1.105,1.1038,1.1046,1.1046,1.1046,1.1046,1.1046,1.1046,1.0337,1.039,1.042,1.0494,1.0533,1.059,1.062,1.0662,1.0703,1.0775,1.0822,1.0858,1.0912,1.0977,1.103,1.1045,1.1067,1.1064,1.1083,1.1067,1.1067,1.1067,1.1056,1.1067,1.1067,1.1095,1.1095,1.1095]},{"header":{"parameterUnit":"m.s-1","parameterCategory":1,"la1":30.2991,"la2":30.254,"lo1":-89.0895,"lo2":-89.0444,"dy":0.0017,"dx":0.0017,"nx":28,"ny":28,"refTime":"2026-02-25T03:00:00:Z","depth":0,"parameterNumber":3,"parameterNumberName":"V-component_of_WINDS"},"data":[0,0,0,0,0,0,0,0,0,0,0,0,0,0,0,0,0,0,0,0,0,0,0,0,0,0,0,0,0,0,0,0,0,0,0,0,0,0,0,0,0,0,0,0,0,0,0,0,0,0,0,0,0,0,0,0,0,0,4.6189,4.6189,0,4.6188,4.6188,4.6187,4.6139,4.6138,4.6136,4.6135,4.6132,4.6133,4.6134,0,0,0,0,0,0,0,0,0,0,0,0,0,4.6149,4.615,4.6189,4.6189,4.6189,4.6188,4.6188,4.6187,4.6139,4.6138,4.6136,4.6135,4.6131,4.6133,4.6134,0,0,0,0,0,0,0,0,0,0,0,0,0,4.6159,4.6151,4.6189,4.6165,4.6163,4.6188,4.6188,4.6187,4.6139,4.6138,4.6136,4.6134,4.6131,4.6132,4.6134,4.6181,0,0,4.6139,4.614,0,0,0,0,0,0,0,0,4.6159,4.6161,4.6168,4.6167,4.6164,4.6162,4.6172,4.6185,4.614,4.6148,4.6135,4.6133,4.6143,4.6143,4.6147,4.6181,4.6181,4.6139,4.614,4.6141,4.6141,0,0,0,0,0,0,0,4.6158,4.616,4.6188,4.6169,4.6166,4.6154,4.6153,4.6174,4.6156,4.6147,4.6144,4.6144,4.6141,4.6146,4.6147,4.6181,4.6139,4.614,4.6141,4.6142,4.6257,4.6259,0,0,0,0,0,0,4.6161,4.616,4.6188,4.6188,4.6157,4.6156,4.6155,4.6164,4.6156,4.6153,4.6146,4.6142,4.6144,4.6145,4.6146,4.6204,4.6141,4.6142,4.6143,4.6255,4.6257,4.6259,0,0,0,0,0,0,4.616,4.6164,4.6188,4.6173,4.6176,4.6159,4.6169,4.6165,4.617,4.6155,4.6151,4.6154,4.6143,4.6144,4.6174,4.6203,4.6143,4.6144,4.6252,4.6255,4.6258,4.6318,0,0,0,0,0,0,4.6159,4.6164,4.6182,4.6174,4.6177,4.6217,4.6171,4.6167,4.6173,4.6168,4.6161,4.6158,4.6141,4.6172,4.6176,4.6204,4.6146,4.625,4.6254,4.6257,4.6313,4.6323,4.6331,0,0,0,0,0,4.6158,4.6197,4.6183,4.6187,4.6199,4.6218,4.622,4.62,4.6175,4.6193,4.6184,4.6159,4.6199,4.6175,4.6179,4.6209,4.6248,4.6253,4.6257,4.631,4.6321,4.6331,0,0,0,0,0,0,4.6208,4.6196,4.618,4.6218,4.622,4.621,4.6232,4.6212,4.622,4.6215,4.6189,4.6188,4.6222,4.6218,4.6192,4.6255,4.6219,4.6225,4.6258,4.6268,4.6277,4.6278,4.6147,0,0,0,0,0,4.6223,4.6241,4.6229,4.6264,4.6266,4.6249,4.6257,4.6241,4.6242,4.6242,4.6235,4.6236,4.6249,4.6258,4.6268,4.6312,4.6311,4.6334,4.6343,4.635,4.6356,4.6381,4.6392,4.6275,4.6275,4.6275,0,0,4.6255,4.6251,4.6263,4.6274,4.6273,4.6293,4.625,4.6271,4.6285,4.6245,4.6274,4.6268,4.6267,4.6305,4.6321,4.6303,4.6388,4.6356,4.6362,4.6364,4.6387,4.6399,4.6409,4.6278,4.6277,4.6277,0,0,4.6324,4.6322,4.6352,4.6353,4.6354,4.6343,4.635,4.6344,4.6339,4.6368,4.6339,4.6355,4.6377,4.6379,4.6382,4.6454,4.6432,4.6458,4.6505,4.653,4.6539,4.6547,4.6575,4.6586,4.6463,4.6464,4.6464,0,4.6364,4.6392,4.637,4.6394,4.6401,4.6366,4.6398,4.6399,4.6403,4.6408,4.6387,4.6416,4.6413,4.6452,4.647,4.6473,4.6482,4.646,4.6539,4.6547,4.6555,4.6581,4.6592,4.6467,4.6467,4.6466,4.6466,0,4.6442,4.6462,4.6487,4.6494,4.6502,4.6529,4.6512,4.6523,4.6507,4.6499,4.6529,4.6524,4.6535,4.6543,4.6526,4.658,4.6569,4.6544,4.6507,4.657,4.6595,4.6604,4.6472,4.6471,4.647,4.6469,0,0,4.6543,4.6539,4.6548,4.6552,4.6551,4.6566,4.6592,4.6604,4.6615,4.6618,4.6641,4.6662,4.664,4.6644,4.6627,4.6649,4.671,4.6621,4.6621,4.6641,4.6772,4.6793,4.6805,4.6694,4.6696,4.6697,4.6773,0,4.6612,4.6658,4.664,4.6688,4.6708,4.6676,4.6699,4.6701,4.6693,4.6709,4.6699,4.6716,4.6684,4.6687,4.6706,4.6698,4.6736,4.6692,4.6716,4.6717,4.6721,4.6818,4.6839,4.6911,4.6782,4.6784,4.6785,0,4.6699,4.6709,4.676,4.6758,4.6765,4.6786,4.6797,4.6811,4.6813,4.6806,4.6812,4.6792,4.6818,4.678,4.6816,4.6787,4.6795,4.6793,4.6795,4.6798,4.6757,4.6827,4.6933,4.6945,4.6799,4.6798,4.6797,0,4.6771,4.6797,4.6831,4.6835,4.6832,4.6849,4.6848,4.6848,4.6857,4.6866,4.6872,4.6883,4.689,4.6899,4.6882,4.6855,4.6922,4.6882,4.6918,4.6919,4.6936,4.6936,4.7048,4.6937,4.6936,4.6936,4.6936,0,4.6852,4.6885,4.6864,4.6886,4.6922,4.6901,4.6937,4.6933,4.6933,4.6954,4.6925,4.6944,4.692,4.6937,4.6923,4.6957,4.6959,4.6956,4.6952,4.696,4.6961,4.6967,4.6963,4.6939,4.6938,4.6938,4.6937,0,4.694,4.6927,4.6963,4.6959,4.6958,4.6986,4.6982,4.7001,4.6992,4.7019,4.7023,4.7009,4.7028,4.7012,4.7029,4.702,4.7066,4.7054,4.7067,4.7064,4.7103,4.7101,4.7226,4.7243,4.7118,4.7119,4.712,0,4.6994,4.7019,4.7018,4.7031,4.7033,4.7052,4.7063,4.7042,4.7054,4.7059,4.7079,4.7095,4.7108,4.714,4.7131,4.7144,4.7134,4.7177,4.7136,4.7144,4.7139,4.7139,4.7142,4.7186,4.7188,4.7189,4.719,0,4.7092,4.7085,4.7101,4.7116,4.713,4.714,4.7147,4.7159,4.7138,4.7152,4.7173,4.7183,4.7202,4.722,4.7231,4.7229,4.7208,4.7203,4.7213,4.7222,4.723,4.723,4.7093,4.7201,4.7199,4.7199,4.7198,4.7198,4.7167,4.7189,4.7193,4.7213,4.7217,4.7225,4.7245,4.7239,4.7256,4.7271,4.7257,4.7283,4.7285,4.7298,4.73,4.7319,4.7301,4.7314,4.7318,4.7323,4.733,4.7225,4.732,4.732,4.732,4.7319,4.7319,0,4.7266,4.7268,4.7286,4.7299,4.7315,4.7293,4.7301,4.7316,4.7339,4.7343,4.7357,4.7381,4.7399,4.7392,4.7407,4.7424,4.7414,4.7429,4.7429,4.743,4.7343,4.7335,4.7437,4.7437,4.7437,4.7437,4.7437,4.7437,4.732,4.7358,4.7352,4.7391,4.7392,4.7418,4.7424,4.7432,4.7437,4.7466,4.7481,4.7476,4.7477,4.7492,4.7508,4.7505,4.7513,4.7532,4.7526,4.7447,4.7435,4.7424,4.7416,4.7534,4.7534,4.7611,4.7612,4.7613]}]]